Torna al catalogo

ATLAS 2 CENTAUR R/B

AttivoGTO
NORAD 21804·ROCKET BODY·🇺🇸 United States

Lanciato Dec 7, 1991 da Cape Canaveral Space Force Station

Loading…

TLE

ObsoletoSource: Space-Track

Epoca: Sep 14, 2026, 01:02 UTC

1 21804U 91083B   26257.04314546 -.00000071  00000-0  50567-2 0  9999
2 21804  17.1726 256.4584 7345325 322.1676   3.9588  1.91162481242926

Traccia ATLAS 2 CENTAUR R/B in tempo reale con AllMySat

Download on the App Store